NOAA 16 DEB, 41258

Orbit data source: Space-Track

NOAA 16 DEB, 41258 is space debris in SSO originally from a launch on Thu, 21 Sep 2000 UTC launched from the Air Force Western Test Range (AFWTR). Debris objects in space refer to the collection of defunct objects orbiting the Earth. Examples of debris include non-operational satellites, rocket bodies, and fragments generated from explosions, collisions, or faulty payload assembly.

Loading next visibility...
Identifier
41258, 2000-055FJ
Orbit
SSO
Country
Flag of USUS
Related business
Manufacturer
Unknown
Mission
Spacecraft
Bus & Motor
Unknown
Mass
Unknown
Launch date (UTC)
2000-09-21 (26 years ago)
Launch vehicle
Unknown
Launch site
Air Force Western Test Range (AFWTR)
Object type
Payload
Rocket body
Debris
Shape & HBR
Unknown shape, 0.1 m
Radar Cross Section
Medium (>0.1 m² and <1 m²)

Expand to show TLE details & history
Last TLE update: 1 day ago

TLE from 1 day ago
0 NOAA 16 DEB
1 41258U 00055FJ  26256.71733200  .00007173  00000-0  13632-2 0  9999
2 41258  98.9721 169.7953 0035633 135.3587 225.0492 14.64085935559514
Epoch: 2026-09-13T17:12Z
TLE epoch observation values (Epoch: 2026-09-13T17:12:57.484Z)
Latitude
-0.00002°
Longitude
-81.15219°
Altitude
700.795 km
Speed
7.496 km/s
True Right ascension
11h 19m 10s
True Declination
0° 00' 00"
Sunlit
Object was in daylight at epoch
Visualization orbit readout
Latitude
Unknown
Longitude
Unknown
Altitude
Unknown
Speed
Unknown
Apparent Right ascension
Unknown
Apparent Declination
Unknown
Sunlit
N/A
Visualization observer readout
Local Sidereal Time
21:08:35
Azimuth
Unknown
Elevation
Unknown
Doppler factor
Unknown
Orbital elements
Apogee altitude
702.264 km
Perigee altitude
651.984 km
Semi-major axis
7,055.261 km
Eccentricity
0.00356
Inclination
98.9721°
RAAN
169.7953°
Arg. of periapsis
135.3587°
True anomaly
224.76113°
Mean anomaly
225.0492°
Eccentric anomaly
224.90508°
Mean motion
3.66247 °/min
Orbital period
98.29 mins
BSTAR
0.0013632
Loading maneuver chart data...
Computing Atmospheric mass density...
Loading historical data...
Loading historical data...
Loading historical data...
Loading historical data...
Loading historical data...
Loading historical data...
Loading historical data...

Documentation

Showing up to 5 results
|